GFSGL_925_spd_336.txt.gz
Wind_Speed
11 10 10 9 6 4 1 4 5 5 7 5 5 5 5 6 6 7 8 8 9 9 9 8 8 8 9 9 10 11 13 15 19 26 29 31 33 32 32 33 31 32 31
8 9 10 10 7 5 3 3 5 6 5 3 5 6 6 7 7 8 8 7 8 8 8 8 9 10 10 10 12 14 16 18 21 26 28 30 32 34 35 34 31 31 33
8 8 6 5 5 4 7 8 7 5 6 5 6 6 6 6 6 5 5 7 6 6 6 7 8 9 10 12 14 16 18 20 23 27 29 29 30 32 36 33 33 33 31
7 7 7 6 7 5 5 6 7 7 7 5 5 4 3 2 2 2 4 4 5 6 6 7 9 11 12 14 16 17 19 23 24 27 28 29 29 30 32 32 37 35 36
12 11 10 9 10 7 5 6 6 5 5 5 4 3 3 3 2 2 4 5 7 8 8 9 11 13 13 12 15 18 21 24 26 28 29 29 28 29 31 33 32 35 41
12 8 8 9 8 7 6 6 7 8 7 6 6 6 6 7 8 9 9 9 11 11 12 12 13 14 11 16 15 17 21 25 27 28 30 30 34 30 33 31 34 31 20
9 8 8 8 9 8 8 9 9 9 8 9 7 8 10 10 13 14 13 13 14 14 14 15 16 16 17 17 19 21 23 23 24 28 31 31 36 35 34 35 36 35 36
8 8 8 9 10 8 8 10 10 10 10 9 9 11 12 12 14 17 15 16 16 16 16 17 18 19 19 18 24 25 26 26 26 25 29 37 36 39 36 37 39 42 43
8 8 8 9 8 7 8 7 9 9 11 11 11 12 13 15 15 19 17 15 17 16 17 18 19 21 21 22 23 28 29 28 25 28 33 33 36 38 36 35 33 31 30
6 7 6 7 8 7 7 9 10 12 12 12 12 14 16 18 19 20 18 16 18 18 18 18 19 19 14 22 23 28 31 30 30 36 32 33 30 30 29 29 31 31 32
5 5 6 7 8 8 10 11 12 13 13 14 15 16 16 15 16 17 20 15 17 19 19 19 21 19 23 24 25 26 28 32 33 29 29 30 30 30 30 30 35 35 36
6 7 6 9 10 10 11 14 14 15 16 16 18 19 17 14 11 13 12 10 15 16 17 20 21 25 27 25 26 23 28 31 26 25 27 28 29 32 34 35 40 43 43
9 10 12 12 15 16 17 18 19 19 19 19 18 19 18 15 15 14 15 14 12 12 18 21 22 25 23 24 22 28 27 26 20 24 27 27 31 32 36 36 40 42 45
13 15 17 18 19 18 18 19 21 22 22 18 18 16 15 15 13 13 9 9 12 14 17 21 27 26 22 21 23 22 23 23 22 25 28 29 30 32 34 34 36 40 39
18 18 18 19 18 16 16 17 18 14 13 10 11 8 8 9 7 5 10 12 14 16 20 23 22 19 20 21 22 23 23 22 24 23 27 29 28 30 33 35 36 36 33
19 18 18 16 14 13 12 10 9 10 5 7 8 7 6 8 8 11 10 10 12 17 18 19 17 18 19 21 22 22 22 22 22 25 26 28 26 29 32 35 33 32 31
15 14 13 11 11 10 8 6 5 4 4 4 4 5 6 9 10 9 9 12 18 15 17 16 16 18 19 20 21 21 22 23 24 23 27 27 27 27 30 31 31 31 32
10 10 9 11 11 9 7 3 3 5 4 9 6 3 7 8 8 9 11 17 15 7 14 15 17 18 19 20 21 21 22 23 23 25 25 26 26 26 28 28 30 29 30
8 9 9 10 7 4 4 3 5 4 4 5 5 6 7 5 8 10 8 11 12 13 14 15 16 18 19 20 21 20 21 22 24 24 24 24 25 25 26 27 28 30 29
8 7 6 5 5 5 5 7 4 4 5 6 6 5 5 8 10 8 9 11 13 14 15 17 18 18 19 20 20 20 20 22 22 23 23 23 24 25 26 26 26 27 26
5 5 5 5 8 10 7 5 4 5 6 6 6 3 5 10 11 10 10 12 13 15 17 18 19 19 20 20 19 19 20 21 21 22 23 24 25 26 26 25 25 25 24
7 6 9 9 7 8 9 7 8 7 7 7 7 5 5 7 10 11 12 13 15 15 17 18 19 20 20 19 19 19 20 20 21 22 23 25 25 26 25 24 23 22 22
8 8 9 10 9 7 7 11 10 8 8 8 9 10 9 11 13 13 14 15 16 17 18 19 20 20 19 19 18 19 19 19 20 20 24 24 24 24 23 22 21 20 19
9 10 11 11 11 11 12 12 12 10 11 12 11 11 12 13 13 13 15 15 16 17 19 19 19 20 20 19 18 18 19 16 18 22 21 22 22 22 22 21 18 18 18
12 12 13 13 14 14 16 16 16 15 14 12 13 14 15 14 13 14 15 15 15 18 20 19 20 18 19 19 20 19 17 21 25 19 18 20 20 20 18 18 17 16 15
15 15 16 17 18 18 20 20 20 18 15 13 15 15 15 14 17 16 17 15 17 19 20 20 18 19 19 19 17 17 22 26 19 22 20 19 17 16 16 16 16 16 14

GFSGL_925_spd_339.txt.gz
Wind_Speed
13 11 11 10 8 7 8 9 8 8 8 6 4 3 4 5 5 5 5 5 6 5 6 6 7 8 9 9 10 10 11 13 16 22 24 26 30 29 30 28 30 30 27
16 13 10 8 7 7 7 7 7 7 6 7 7 6 4 5 4 4 4 4 4 4 4 5 6 7 9 9 11 12 13 15 18 21 25 27 28 28 29 32 32 31 31
11 9 9 7 6 6 5 6 5 4 4 4 3 4 6 5 4 3 3 3 2 2 4 5 7 8 10 11 13 13 15 17 20 23 26 26 27 28 28 30 31 30 31
6 7 7 4 2 3 2 4 6 6 7 7 7 6 5 4 4 3 0 2 3 5 5 6 7 8 10 12 13 14 16 19 21 24 26 27 27 27 26 29 31 31 34
7 6 7 9 7 5 5 6 7 8 7 7 7 6 5 6 6 0 4 5 5 7 8 9 9 11 16 11 11 15 16 20 23 25 26 28 28 28 28 29 30 32 37
9 10 11 12 12 11 8 6 8 11 11 10 9 8 7 7 8 8 8 8 9 11 12 12 13 15 5 11 16 12 15 22 24 26 28 28 29 27 31 31 33 32 26
10 5 8 5 6 7 9 9 11 11 10 11 11 10 11 11 12 14 13 13 13 14 15 17 15 15 16 15 15 18 22 23 25 28 30 28 29 29 33 34 33 34 36
9 9 10 9 8 9 9 10 11 11 12 12 13 12 12 13 15 16 16 15 16 17 18 20 17 17 18 19 20 22 25 26 27 28 30 28 30 34 31 36 35 37 38
9 8 9 10 10 10 11 11 11 12 13 14 14 13 14 15 15 16 15 14 18 20 20 19 19 20 21 16 13 23 28 29 28 28 28 35 35 28 32 34 31 31 29
10 6 5 6 8 8 10 10 10 12 13 14 15 15 15 17 16 17 19 15 18 21 20 17 18 13 7 12 16 23 30 30 28 32 32 29 26 29 32 28 29 28 30
6 5 6 8 8 9 10 12 13 14 15 15 17 16 17 16 15 13 11 13 18 21 18 19 18 13 15 22 28 23 23 27 29 30 27 28 25 28 28 29 29 31 34
6 6 7 7 9 10 12 12 14 15 16 17 18 20 19 15 11 9 10 17 14 15 19 20 19 23 28 30 28 26 27 28 28 29 26 26 25 27 31 32 33 37 39
8 8 8 10 12 14 15 15 17 17 18 18 19 19 18 14 11 13 17 12 15 14 15 18 20 23 27 30 26 22 28 24 27 27 28 28 27 30 34 30 36 37 40
9 11 12 14 17 17 16 17 17 16 14 10 7 11 14 9 9 10 9 13 12 15 15 16 24 28 28 31 25 23 21 24 25 26 27 27 27 28 29 30 34 39 37
14 16 17 17 18 17 16 13 11 7 6 8 10 10 8 10 6 8 9 9 11 14 20 22 22 21 19 20 20 21 22 23 23 24 26 26 26 28 28 29 33 35 32
17 18 19 20 18 10 11 9 5 6 5 5 7 6 5 7 7 8 10 13 15 17 17 19 19 19 19 20 21 22 23 23 22 25 26 25 26 24 25 30 30 31 31
15 14 16 14 12 11 9 9 8 6 7 7 6 4 2 9 9 12 12 14 19 20 16 19 19 18 19 20 21 22 23 22 22 24 25 26 26 25 27 27 31 31 32
11 11 12 14 11 8 10 9 8 7 10 11 13 11 9 7 8 11 11 13 17 9 14 16 17 18 19 20 21 22 23 22 22 24 26 25 26 24 24 26 29 30 31
9 13 7 10 11 7 7 8 8 9 9 6 6 13 14 11 9 11 10 12 15 15 15 16 17 18 19 20 20 22 22 21 22 24 24 25 25 25 23 26 29 31 32
11 7 7 10 9 8 10 8 13 7 8 9 8 7 10 10 12 12 16 16 15 16 17 18 19 20 19 20 21 21 21 21 22 23 23 24 25 25 25 27 27 29 29
10 6 5 10 13 8 8 16 9 8 10 9 8 4 7 8 14 14 14 13 14 16 17 18 20 20 21 19 20 21 21 21 22 22 22 24 26 25 25 25 26 27 28
10 10 9 12 14 13 15 12 12 12 13 11 10 7 10 9 11 14 13 14 15 16 17 18 20 21 21 19 19 20 21 21 21 20 21 25 26 25 25 25 25 25 25
13 13 14 14 14 12 10 15 15 17 16 15 14 13 13 14 13 13 13 16 18 18 19 21 21 22 20 19 19 19 20 20 18 19 24 25 25 25 24 24 24 23 23
15 16 15 16 17 18 17 17 18 21 21 18 16 17 13 15 16 16 16 15 15 15 16 21 23 22 20 19 19 19 17 13 15 19 22 22 23 24 23 22 21 22 22
16 18 18 18 20 18 20 23 21 24 24 21 21 18 13 15 15 15 13 11 14 13 18 20 22 22 20 19 20 19 12 18 24 26 18 21 22 22 20 19 19 21 21
17 19 21 21 20 23 24 23 19 23 22 20 18 18 13 13 16 13 11 14 16 16 19 21 21 19 20 20 18 11 17 22 19 22 26 20 19 19 18 19 19 18 18

GFSGL_925_spd_342.txt.gz
Wind_Speed
16 18 16 15 12 10 8 8 10 10 8 7 7 6 6 6 6 7 8 7 6 6 6 6 6 7 8 9 9 11 11 14 14 23 25 27 30 29 27 28 28 23 27
28 26 22 18 13 9 10 9 7 8 6 6 6 6 7 6 6 5 6 6 5 4 5 4 5 6 7 9 10 12 12 13 14 17 26 27 30 28 31 29 30 22 23
19 19 17 15 11 10 8 7 7 7 6 6 7 7 5 4 5 3 2 2 2 2 2 3 4 4 5 7 9 11 12 14 16 18 21 22 25 26 29 26 29 31 24
17 17 14 11 9 9 7 4 3 3 4 6 5 3 1 2 1 2 3 2 3 5 6 6 7 7 5 7 7 11 11 18 17 20 22 22 23 24 25 30 27 31 32
12 10 9 9 9 8 5 5 5 6 5 3 5 6 7 8 9 10 4 4 6 8 10 11 10 7 16 14 12 11 12 13 17 19 21 23 23 24 27 23 27 31 36
11 11 10 12 10 8 10 9 9 10 9 8 6 8 9 10 12 12 11 9 9 12 13 15 15 16 18 6 12 11 11 13 18 21 23 23 27 26 24 25 28 30 25
11 11 12 11 12 13 15 12 12 11 11 12 13 14 15 16 17 15 13 13 14 14 16 19 20 17 12 15 14 12 17 19 22 24 27 27 28 26 24 30 29 28 31
11 10 11 14 11 12 13 16 13 13 15 16 16 17 18 17 17 18 18 17 15 17 19 21 22 22 22 19 18 19 18 20 22 25 29 32 26 31 33 30 30 31 33
13 13 15 17 13 15 16 16 15 16 17 17 16 16 18 19 19 19 19 19 17 21 20 22 22 22 22 18 15 12 19 22 24 27 26 31 35 26 29 25 22 28 27
9 12 10 12 13 13 13 12 12 14 14 16 18 20 21 22 19 17 16 19 18 19 17 20 22 15 16 7 12 16 19 23 24 25 31 33 33 34 21 17 22 25 29
10 6 7 7 7 8 9 10 11 12 14 14 17 20 19 19 18 19 17 18 16 14 16 18 14 13 9 15 20 24 27 29 32 31 31 31 32 24 17 20 24 28 30
7 3 5 6 7 10 11 10 10 11 13 17 18 20 21 20 19 17 13 12 13 17 14 15 18 13 21 25 28 31 31 32 33 28 29 25 26 25 19 25 30 34 26
5 7 5 5 7 9 10 12 13 14 15 16 16 16 13 12 9 5 6 9 12 14 17 15 20 19 23 30 33 29 28 26 25 22 23 26 22 23 30 29 30 26 34
7 6 7 9 14 16 16 14 15 15 14 10 6 6 8 7 7 10 11 9 12 13 13 12 18 24 25 28 28 17 13 16 21 23 21 21 25 29 26 28 26 29 32
11 14 15 17 20 19 14 14 15 12 8 6 6 7 6 6 5 6 9 9 10 13 17 20 18 21 23 17 14 17 19 19 21 19 19 24 26 25 30 27 26 27 27
15 15 17 18 17 12 11 9 7 7 7 5 6 7 4 6 9 9 7 9 12 13 16 14 18 21 18 14 16 16 17 19 20 20 21 20 26 29 27 28 25 25 28
12 18 16 16 11 5 8 8 9 8 9 11 11 9 8 8 8 8 10 12 15 14 16 17 21 19 13 14 15 15 16 18 24 19 17 24 27 24 28 26 25 26 32
14 17 10 12 12 11 13 11 8 9 13 19 20 17 14 11 7 6 6 9 13 15 18 22 20 14 14 14 15 15 16 19 21 17 20 21 23 24 25 25 25 27 32
7 9 9 10 11 8 8 10 8 14 14 11 16 18 19 15 12 11 12 15 15 16 19 13 14 14 15 16 17 17 16 18 16 19 21 20 21 22 26 24 26 31 33
10 14 11 7 11 13 13 13 14 18 15 10 12 18 18 16 14 16 18 20 21 23 19 12 13 16 16 17 19 17 15 17 18 20 20 18 19 24 26 24 27 30 30
11 8 11 6 11 16 15 10 14 15 14 8 11 8 16 18 13 10 12 16 17 12 12 12 14 16 18 19 19 16 15 17 19 20 15 18 22 25 24 25 28 29 29
11 14 12 13 12 15 18 13 15 22 14 13 16 12 15 17 14 13 15 16 8 12 14 14 15 17 19 19 17 17 16 18 16 13 18 19 21 23 24 26 26 27 28
12 14 15 16 16 16 13 15 17 18 19 16 16 18 22 21 18 18 16 7 7 9 13 13 17 20 19 19 18 15 16 12 9 11 14 18 21 20 23 24 25 25 26
13 14 17 19 17 17 18 16 18 23 25 22 21 18 14 19 21 12 9 13 12 9 11 11 18 18 19 20 17 14 13 13 12 13 20 16 19 22 20 21 21 24 26
14 14 16 18 19 18 19 20 18 20 22 18 22 19 23 18 11 12 8 11 11 10 11 13 16 18 18 18 18 15 12 13 17 19 18 22 18 21 19 20 20 22 24
19 17 17 17 19 17 13 12 13 15 16 20 23 28 25 21 17 14 14 13 10 10 11 14 17 17 16 16 15 11 13 16 13 17 24 23 17 18 18 18 20 20 21

GFSGL_925_spd_345.txt.gz
Wind_Speed
25 28 27 23 20 22 23 21 20 16 15 12 10 9 8 8 10 11 10 9 11 10 11 11 11 11 14 10 9 12 13 15 10 16 21 23 26 26 26 24 24 16 21
31 29 23 21 20 19 18 17 16 16 13 13 11 10 10 8 8 10 10 8 8 8 8 9 9 8 8 10 13 11 13 12 17 22 23 28 27 29 29 30 25 28 22
30 25 21 19 19 17 14 13 14 14 14 14 13 13 11 8 7 5 7 7 7 3 3 4 4 4 4 7 10 9 9 10 15 17 26 29 31 31 33 31 34 24 24
27 23 20 16 15 13 12 10 9 10 8 8 9 8 9 8 5 7 5 1 3 4 5 5 7 6 7 8 13 11 9 11 14 15 18 23 26 29 27 30 29 23 26
22 19 16 15 14 11 11 10 11 9 9 9 6 5 4 3 5 7 6 3 5 6 8 9 10 12 9 14 16 15 13 14 15 18 18 19 20 23 24 25 27 27 27
14 14 12 11 10 6 7 11 10 10 9 5 7 9 6 8 7 4 8 13 10 10 11 13 13 13 15 17 17 15 16 17 18 20 21 22 23 25 26 27 25 26 23
10 9 8 10 10 9 8 9 10 9 10 12 12 10 9 10 8 12 13 13 13 12 13 14 14 14 17 17 19 20 18 18 18 19 24 27 29 30 31 28 26 30 28
10 10 11 14 12 11 13 13 13 13 12 11 12 12 14 15 17 17 18 20 19 18 16 16 19 21 22 24 25 24 16 13 15 22 27 28 30 32 34 36 31 32 32
12 15 16 15 15 14 16 18 17 14 15 16 15 15 17 17 17 20 20 23 24 25 21 19 22 23 23 24 21 15 12 18 23 24 20 25 31 35 36 37 29 25 25
20 19 18 16 18 17 16 17 18 19 17 17 17 16 18 20 18 20 22 26 28 28 22 19 19 20 19 12 9 12 19 25 26 23 27 31 33 35 31 33 37 24 25
9 11 11 13 16 16 12 12 13 14 16 17 17 17 18 18 19 18 20 21 22 21 15 15 17 14 12 8 16 20 25 30 29 31 33 34 33 31 30 25 16 24 30
12 7 11 9 8 7 11 9 10 11 13 16 17 18 18 18 18 20 18 16 17 17 15 15 13 9 13 19 23 28 31 32 31 30 32 30 31 28 19 29 30 30 33
6 4 8 8 7 6 7 10 12 13 15 17 15 14 12 9 8 6 7 7 8 15 14 11 13 16 20 24 29 31 25 29 23 24 24 27 18 24 27 25 34 35 37
8 6 6 7 9 10 11 14 14 16 17 16 13 10 7 7 6 6 7 7 8 8 9 11 13 19 24 24 23 24 8 11 14 17 22 16 25 21 26 34 35 36 34
10 12 13 12 13 15 15 17 15 17 16 12 9 10 9 7 7 8 9 10 8 8 11 14 19 20 18 19 22 10 13 14 15 16 21 23 16 27 30 32 29 34 25
15 15 16 14 15 18 17 14 12 11 8 9 9 10 9 10 8 9 8 8 7 9 12 16 18 18 19 23 21 14 14 14 14 18 23 14 22 26 31 28 29 26 24
20 18 17 15 19 18 16 15 13 10 11 13 12 12 12 12 10 8 7 8 10 11 14 17 20 22 23 26 14 12 14 15 17 20 11 19 23 24 23 24 27 22 26
21 20 20 21 21 13 15 15 16 13 16 17 17 20 18 17 13 8 7 10 14 11 15 20 24 25 23 14 12 14 18 18 15 10 16 21 22 17 22 25 23 23 28
22 17 19 21 17 11 9 12 13 18 18 19 20 20 24 23 17 14 14 17 19 20 21 20 19 18 9 11 13 17 19 9 10 14 20 17 12 21 24 25 23 27 31
10 9 11 13 12 11 14 16 21 19 19 20 21 22 24 26 25 26 25 24 25 26 26 24 20 8 7 12 14 14 9 13 15 19 9 11 17 22 25 25 24 27 27
8 10 12 14 12 13 16 16 13 12 17 17 26 25 27 31 34 31 29 25 22 22 20 13 5 5 8 12 14 14 16 18 16 5 10 14 20 25 26 23 26 26 26
10 13 12 18 19 18 17 17 19 19 20 20 21 22 23 28 34 34 30 24 21 16 14 10 9 8 13 15 16 16 15 13 8 10 13 17 22 23 22 26 24 24 24
13 14 16 14 15 17 21 22 22 21 23 24 24 22 21 30 30 33 31 26 23 19 15 14 15 14 16 13 16 16 18 15 10 10 12 17 19 24 24 23 24 23 23
17 16 15 17 18 18 19 19 19 19 23 23 18 15 8 16 23 30 28 27 25 20 16 13 10 10 11 13 17 14 15 11 9 10 14 16 21 25 21 23 21 23 23
18 18 18 19 20 21 21 13 2 5 8 10 13 15 21 23 21 16 18 21 18 16 14 10 6 11 12 15 12 14 11 9 10 12 13 18 23 22 19 22 22 23 23
24 24 24 25 27 15 4 3 7 11 13 15 16 18 20 24 20 19 18 14 7 8 4 5 6 11 9 8 11 10 7 9 9 11 16 20 21 20 20 21 21 21 21